Location: Arroyo de Fuente Vieja
(40.4902°N, 4.1175°W)
Time: 22:50:56
(UTC+00:00)

Terra - Pass Details

Date: 18 April 2024
Orbit: 691 x 696 km, 98.0° (Epoch: 23 May)

Event Time Altitude Azimuth Distance (km) Brightness Sun altitude
Exits shadow 22:19:09 33° 286° (WNW) 1,168 3.2 -31.7°
Drops below altitude 10° 22:22:40 10° 329° (NNW) 2,163 5.2 -32.0°
Sets 22:25:06 0° 338° (NNW) 3,084 6.2 -32.3°
